Regional Weather Roundup
Issued by NWS

Home | Current Version | Previous Version | Graphics & Text | Print | Product List | Glossary On
Versions: 1 2 3 4 5 6 7 8 9 10 11 12 13 14 15 16 17 18 19 20 21 22 23 24 25 26 27 28 29 30 31 32 33 34 35 36 37 38 39 40 41 42 43 44 45 46 47 48 49 50
000
ASUS45 KABQ 260101
RWRNM
NEW MEXICO REGIONAL WEATHER ROUNDUP
NATIONAL WEATHER SERVICE ALBUQUERQUE NM
700 PM MDT SUN JUN 25 2017

NOTE: "FAIR" MEANS FEW OR NO CLOUDS BELOW 12,000 FEET AGL WITH NO
       SIGNIFICANT WEATHER OR OBSTRUCTIONS TO VISION.

      THIS PRODUCT IS RELEASED AS TWO VERSIONS.  ONE VERSION NEAR
      THE TOP OF THE HOUR CONTAINING PRELIMINARY DATA FROM ALBUQUERQUE
      AND OTHER STATIONS.  A FINAL VERSION WITH ADDITIONAL DATA IS
      ISSUED ABOUT 10 MINUTES AFTER THE HOUR.

NMZ501-503-504-510>518-260200-
NORTHWEST PLATEAU/NORTHCENTRAL MOUNTAINS

CITY           SKY/WX    TMP DP  RH WIND       PRES   REMARKS
FARMINGTON     FAIR      89  32  13 W13       30.09F
LOS ALAMOS     FAIR      69  47  44 SW14      30.29F
SANTA FE       FAIR      72  47  40 SW15G30   30.24S
TAOS           FAIR      75  46  35 SW9       30.28R
ANGEL FIRE     FAIR      61  52  71 SE10G17   30.43R

$$
NMZ402-403-502-505>509-260200-
WESTCENTRAL MOUNTAINS/SOUTHWEST MOUNTAINS

CITY           SKY/WX    TMP DP  RH WIND       PRES   REMARKS
GALLUP         LGT RAIN  77  45  32 E16       30.25R
GRANTS         FAIR      64  54  68 SE12      30.37R
SILVER CITY    FAIR      80  47  30 N21       30.20R

$$
NMZ407-409-411-412-260200-
SOUTHERN DESERTS

CITY           SKY/WX    TMP DP  RH WIND       PRES   REMARKS
DEMING         FAIR      91  49  23 S8        30.10S
LAS CRUCES     FAIR      86  56  35 SE21G31   30.15R
HOLLOMAN AFB   FAIR      85  49  28 SW21G39   30.11R
ALAMOGORDO     PTSUNNY   84  46  26 S22G32    30.11R
T OR C         PTSUNNY   78  47  33 NW21G39   30.17S

$$
NMZ519>523-260200-
CENTRAL VALLEYS/CENTRAL HIGHLANDS

CITY           SKY/WX    TMP DP  RH WIND       PRES   REMARKS
ALBUQUERQUE    PTSUNNY   73  50  44 E7        30.27R
DOUBLE EAGLE   PTSUNNY   70  50  49 SW9       30.29R
MORIARTY ARPT  CLOUDY    70  51  50 W20G28    30.32R
CLINES CORNERS RAIN      59  51  75 VRB5      30.42R
BELEN          NOT AVBL
SOCORRO        FAIR      72  53  50 NW18G25   30.20F

$$
NMZ524>526-539-540-260200-
SOUTHCENTRAL MOUNTAINS

CITY           SKY/WX    TMP DP  RH WIND       PRES   REMARKS
RUIDOSO        FAIR      70  57  64 E10G16    30.36R

$$
NMZ527>531-260200-
NORTHEAST HIGHLANDS/NORTHEAST PLAINS

CITY           SKY/WX    TMP DP  RH WIND       PRES   REMARKS
LAS VEGAS      FAIR      56  49  77 SW15G29   30.31R
RATON          FAIR      65  62  90 S14       30.28F
CLAYTON        FAIR      73  62  68 S13       30.21R

$$
NMZ532>537-260200-
EASTCENTRAL PLAINS

CITY           SKY/WX    TMP DP  RH WIND       PRES   REMARKS
SANTA ROSA     CLOUDY    79  57  46 S6G17     30.19R
TUCUMCARI      LGT RAIN  80  64  58 S12       30.13R
CANNON AFB     FAIR      78  65  64 SE10      30.18S
CLOVIS AIRPORT PTSUNNY   79  62  56 S10       30.18F

$$
NMZ028-029-538-260200-
SOUTHEAST PLAINS

CITY           SKY/WX    TMP DP  RH WIND       PRES   REMARKS
ROSWELL        FAIR      87  55  33 S17       30.07F
ARTESIA        FAIR      90  57  33 SE17G23   30.08R
CARLSBAD       FAIR      89  57  33 SE16      30.04F
HOBBS          FAIR      84  55  37 SE14G22   30.13S


$$




USA.gov is the U.S. government's official web portal to all federal, state and local government web resources and services.